"startDT [UTC]","vpos","CH4 [ppm]","stdev(CH4) [ppm]","CO2 [ppm]","stdev(CO2) [ppm]","H2O_reported [%]","stdev(H2O_reported)","CavityPressure [torr]","CavityTemp [C]","OutletValve","CH4_dry [ppm]","CO2_dry [ppm]","DasTemp [C]","EtalonTemp [C]","WarmBoxTemp [C]","MPVPosition","T_ECpre [C]","T_EC1 [C]","T_EC2 [C]","p_inlet [hPa]","p_in [hPa]","p_out [hPa]","T_inlet [C]","RH_inlet [%]","dwpt_inlet [C]","T_vent [C]","RH_vent [%]","dwpt_vent [C]","flow_vent [l min-1]","flow_inlet [l min-1]","dwpt_sample [C]","T_room [C]"
2015-04-08 00:00:00,0.0,1.92407,0.00048,405.319,0.037,0.1409,0.0017,140.000,45.000,32467.03119,1.92673,406.008,35.693,45.066,44.999,0.00,0.09,-272.71,-272.77,5,687,-4,22.8,4.0,-21.5,22.9,3.6,-22.5,5.73,1.74,-15.5,28.3
2015-04-08 00:01:00,0.0,1.92396,0.00029,405.348,0.040,0.1406,0.0022,140.001,44.999,32467.80329,1.92666,406.035,35.566,45.066,44.999,0.00,0.09,-272.72,-272.78,3,687,-4,22.8,4.0,-21.3,22.9,3.6,-22.5,5.73,1.96,-15.4,28.3
2015-04-08 00:02:00,0.0,1.92352,0.00034,405.358,0.047,0.1421,0.0012,140.000,44.999,32468.92481,1.92619,406.054,35.417,45.066,44.999,0.00,0.09,-272.71,-272.77,5,687,-4,22.8,4.0,-21.3,22.8,3.6,-22.4,5.73,1.65,-15.4,28.3
2015-04-08 00:03:00,0.0,1.92373,0.00039,405.173,0.052,0.1428,0.0022,140.000,44.998,32467.00773,1.92643,405.870,35.258,45.066,44.999,0.00,0.09,-272.72,-272.77,3,688,-4,22.8,4.0,-21.3,22.8,3.6,-22.4,5.73,1.98,-15.5,28.2
2015-04-08 00:04:00,0.0,1.92376,0.00033,405.255,0.036,0.1436,0.0015,140.001,44.998,32464.00600,1.92651,405.958,35.083,45.066,44.999,0.00,0.09,-272.71,-272.78,5,688,-4,22.7,4.1,-21.2,22.8,3.7,-22.4,5.73,1.65,-15.5,28.2
2015-04-08 00:05:00,0.0,1.92359,0.00046,405.206,0.051,0.1455,0.0019,140.002,44.997,32460.88040,1.92634,405.918,34.909,45.066,44.999,0.00,0.09,-272.72,-272.77,4,688,-4,22.7,4.1,-21.2,22.8,3.7,-22.3,5.73,1.97,-15.5,28.0
2015-04-08 00:06:00,0.0,1.92369,0.00038,405.105,0.032,0.1437,0.0017,140.000,44.997,32458.63271,1.92644,405.809,34.723,45.066,45.000,0.00,0.09,-272.71,-272.77,4,689,-4,22.7,4.1,-21.3,22.7,3.7,-22.3,5.73,1.72,-15.5,27.8
2015-04-08 00:07:00,0.0,1.92362,0.00035,405.020,0.045,0.1444,0.0018,139.997,44.997,32454.20395,1.92635,405.726,34.516,45.066,44.999,0.00,0.09,-272.72,-272.77,5,689,-4,22.7,4.1,-21.3,22.7,3.7,-22.3,5.73,1.84,-15.5,27.6
2015-04-08 00:08:00,0.0,1.92348,0.00028,404.887,0.069,0.1426,0.0024,140.001,44.997,32452.79968,1.92619,405.584,34.321,45.067,45.000,0.00,0.09,-272.72,-272.78,4,690,-4,22.7,4.0,-21.3,22.7,3.7,-22.3,5.73,1.90,-15.5,27.5
2015-04-08 00:09:00,0.0,1.92331,0.00027,404.902,0.035,0.1421,0.0018,140.000,44.997,32448.73828,1.92604,405.598,34.121,45.067,45.000,0.00,0.09,-272.71,-272.77,4,690,-4,22.7,4.0,-21.4,22.7,3.8,-22.2,5.73,1.64,-15.5,27.5
2015-04-08 00:10:00,0.0,1.92315,0.00046,404.922,0.030,0.1418,0.0019,140.000,44.997,32444.94450,1.92582,405.614,33.898,45.067,45.000,0.00,0.09,-272.72,-272.77,5,691,-4,22.7,4.0,-21.5,22.7,3.8,-22.2,5.73,1.98,-15.5,27.2
2015-04-08 00:11:00,0.0,1.92349,0.00023,405.003,0.056,0.1413,0.0014,140.001,44.996,32439.70546,1.92616,405.689,33.670,45.067,44.999,0.00,0.09,-272.72,-272.79,4,691,-4,22.7,4.0,-21.5,22.7,3.8,-22.1,5.73,1.83,-15.5,27.1
2015-04-08 00:12:00,0.0,1.92356,0.00043,405.130,0.121,0.1424,0.0016,139.999,44.996,32433.71990,1.92630,405.833,33.458,45.067,44.999,0.00,0.09,-272.72,-272.78,4,692,-4,22.7,4.0,-21.3,22.7,3.8,-22.1,5.73,1.64,-15.5,26.9
2015-04-08 00:13:00,0.0,1.92313,0.00035,404.967,0.117,0.1445,0.0017,139.999,44.997,32427.92995,1.92587,405.667,33.289,45.067,44.999,0.00,0.09,-272.72,-272.77,5,693,-4,22.7,4.1,-21.2,22.6,3.8,-22.1,5.73,1.95,-15.5,26.9
2015-04-08 00:14:00,0.0,1.92341,0.00046,405.069,0.136,0.1437,0.0013,140.001,44.997,32418.83409,1.92611,405.770,33.129,45.067,45.000,0.00,0.09,-272.72,-272.78,5,692,-4,22.6,4.1,-21.3,22.6,3.8,-22.1,5.73,1.86,-15.5,26.7
2015-04-08 00:15:00,0.0,1.92376,0.00034,405.160,0.047,0.1424,0.0017,139.999,44.997,32411.73612,1.92644,405.856,33.007,45.067,45.000,0.00,0.09,-272.72,-272.78,4,693,-4,22.6,4.0,-21.4,22.5,3.8,-22.1,5.73,1.64,-15.5,26.8
2015-04-08 00:16:00,0.0,1.92386,0.00027,405.188,0.029,0.1422,0.0018,140.001,44.997,32407.77719,1.92656,405.884,32.912,45.067,45.000,0.00,0.09,-272.72,-272.78,4,693,-4,22.5,4.0,-21.5,22.4,3.8,-22.1,5.73,2.01,-15.5,26.7
2015-04-08 00:17:00,0.0,1.92392,0.00035,405.255,0.045,0.1411,0.0015,139.998,44.998,32403.42618,1.92663,405.944,32.857,45.067,45.000,0.00,0.09,-272.72,-272.78,6,692,-4,22.5,4.0,-21.6,22.4,3.9,-22.0,5.73,1.70,-15.5,26.6
2015-04-08 00:18:00,0.0,1.92363,0.00030,405.149,0.156,0.1385,0.0023,139.998,44.998,32400.64539,1.92626,405.835,32.791,45.067,45.000,0.00,0.09,-272.73,-272.78,4,692,-4,22.5,3.9,-21.8,22.3,3.9,-22.1,5.73,1.84,-15.5,26.7
2015-04-08 00:19:00,0.0,1.92305,0.00047,404.732,0.064,0.1369,0.0025,140.002,44.999,32398.85247,1.92567,405.401,32.746,45.067,45.000,0.00,0.09,-272.72,-272.78,5,692,-4,22.4,3.9,-21.9,22.3,3.9,-22.0,5.73,1.89,-15.5,26.7
2015-04-08 00:20:00,0.0,1.92304,0.00034,404.692,0.035,0.1345,0.0019,140.001,44.999,32395.32244,1.92558,405.348,32.694,45.067,44.999,0.00,0.09,-272.72,-272.78,5,692,-4,22.4,3.9,-22.0,22.3,3.9,-22.0,5.73,1.70,-15.5,26.7
2015-04-08 00:21:00,0.0,1.92285,0.00040,404.688,0.042,0.1359,0.0011,140.000,44.999,32393.35191,1.92545,405.351,32.688,45.067,44.999,0.00,0.09,-272.72,-272.78,4,692,-4,22.3,3.9,-22.0,22.3,3.9,-22.0,5.73,1.98,-15.6,26.6
2015-04-08 00:22:00,0.0,1.92274,0.00030,404.718,0.032,0.1353,0.0016,139.997,44.999,32391.75172,1.92530,405.378,32.686,45.067,44.999,0.00,0.09,-272.72,-272.78,6,691,-3,22.3,3.9,-22.1,22.2,3.9,-22.0,5.73,1.67,-15.6,26.6
2015-04-08 00:23:00,0.0,1.92319,0.00039,404.733,0.038,0.1322,0.0024,139.997,44.999,32388.52805,1.92567,405.379,32.688,45.067,45.000,0.00,0.09,-272.72,-272.78,5,693,-3,22.2,3.8,-22.3,22.2,3.9,-22.0,5.73,1.97,-15.6,26.6
2015-04-08 00:24:00,0.0,1.92318,0.00049,404.762,0.024,0.1302,0.0021,140.000,45.000,32387.34842,1.92569,405.395,32.725,45.068,45.000,0.00,0.09,-272.72,-272.78,6,691,-4,22.2,3.8,-22.5,22.2,3.9,-22.0,5.73,1.74,-15.6,26.7
2015-04-08 00:25:00,0.0,1.92288,0.00035,404.750,0.040,0.1299,0.0018,139.999,45.000,32386.36038,1.92535,405.386,32.807,45.069,45.001,0.00,0.09,-272.72,-272.79,4,690,-4,22.3,3.8,-22.4,22.2,3.9,-22.0,5.73,1.83,-15.7,26.7
2015-04-08 00:26:00,0.0,1.92304,0.00030,404.774,0.034,0.1305,0.0017,140.001,45.001,32387.48966,1.92548,405.407,32.942,45.069,45.002,0.00,0.09,-272.72,-272.77,6,691,-4,22.3,3.8,-22.5,22.3,3.9,-22.0,5.73,1.94,-15.7,26.8
2015-04-08 00:27:00,0.0,1.92307,0.00035,404.830,0.030,0.1270,0.0016,140.001,45.002,32391.37211,1.92550,405.452,33.086,45.070,45.002,0.00,0.09,-272.72,-272.78,4,689,-5,22.3,3.7,-22.7,22.3,3.9,-21.9,5.73,1.66,-15.6,26.8
2015-04-08 00:28:00,0.0,1.92322,0.00044,404.890,0.128,0.1254,0.0017,140.002,45.002,32394.19674,1.92557,405.493,33.235,45.070,45.002,0.00,0.09,-272.73,-272.79,6,689,-4,22.3,3.7,-22.7,22.3,3.9,-21.9,5.73,1.99,-15.7,26.9
2015-04-08 00:29:00,0.0,1.92327,0.00040,404.973,0.079,0.1269,0.0013,140.003,45.002,32397.97743,1.92570,405.596,33.398,45.069,45.002,0.00,0.09,-272.72,-272.78,5,689,-3,22.4,3.7,-22.5,22.3,3.9,-21.9,5.73,1.77,-15.7,26.9
2015-04-08 00:30:00,0.0,1.92325,0.00036,404.972,0.060,0.1293,0.0017,140.001,45.002,32400.81615,1.92570,405.603,33.550,45.069,45.001,0.00,0.09,-272.72,-272.77,5,689,-4,22.4,3.8,-22.4,22.3,3.9,-21.9,5.73,1.77,-15.7,27.0
2015-04-08 00:31:00,0.0,1.92326,0.00030,404.833,0.093,0.1285,0.0018,139.998,45.002,32404.14042,1.92571,405.464,33.716,45.069,45.001,0.00,0.09,-272.73,-272.78,5,689,-4,22.4,3.7,-22.5,22.4,3.9,-21.9,5.73,1.99,-15.7,27.0
2015-04-08 00:32:00,0.0,1.92320,0.00032,404.737,0.034,0.1276,0.0019,140.001,45.002,32406.03864,1.92558,405.361,33.858,45.068,45.000,0.00,0.09,-272.72,-272.78,4,689,-4,22.4,3.7,-22.5,22.4,3.9,-21.9,5.73,1.69,-15.7,27.1
2015-04-08 00:33:00,0.0,1.92297,0.00041,404.739,0.029,0.1292,0.0022,140.000,45.002,32411.24255,1.92547,405.369,33.986,45.068,45.000,0.00,0.09,-272.72,-272.78,6,689,-3,22.5,3.7,-22.4,22.4,3.9,-22.0,5.73,1.92,-15.7,27.2
2015-04-08 00:34:00,0.0,1.92249,0.00029,404.714,0.031,0.1291,0.0014,139.998,45.002,32416.82450,1.92494,405.344,34.113,45.068,45.000,0.00,0.09,-272.73,-272.78,4,689,-5,22.5,3.8,-22.3,22.4,3.9,-22.0,5.73,1.89,-15.7,27.2
2015-04-08 00:35:00,0.0,1.92267,0.00039,404.720,0.027,0.1314,0.0011,140.000,45.002,32420.13041,1.92516,405.361,34.245,45.068,45.000,0.00,0.09,-272.73,-272.78,6,688,-4,22.5,3.8,-22.2,22.5,3.9,-22.0,5.73,1.68,-15.7,27.3
2015-04-08 00:36:00,0.0,1.92295,0.00044,404.719,0.037,0.1316,0.0015,139.999,45.002,32421.46768,1.92543,405.361,34.364,45.068,45.000,0.00,0.09,-272.72,-272.78,4,688,-4,22.5,3.8,-22.1,22.5,3.8,-22.0,5.73,1.99,-15.7,27.3
2015-04-08 00:37:00,0.0,1.92300,0.00028,404.751,0.041,0.1316,0.0022,140.002,45.002,32422.30777,1.92552,405.394,34.482,45.068,45.000,0.00,0.09,-272.72,-272.78,5,688,-4,22.6,3.8,-22.1,22.5,3.8,-22.0,5.73,1.78,-15.7,27.4
2015-04-08 00:38:00,0.0,1.92307,0.00038,404.725,0.039,0.1315,0.0015,139.999,45.002,32424.92424,1.92555,405.367,34.595,45.068,45.000,0.00,0.09,-272.72,-272.79,5,687,-4,22.6,3.8,-22.2,22.5,3.9,-22.0,5.73,1.75,-15.7,27.4
2015-04-08 00:39:00,0.0,1.92340,0.00036,404.726,0.038,0.1265,0.0032,139.998,45.002,32426.08485,1.92579,405.344,34.701,45.068,45.000,0.00,0.09,-272.72,-272.78,4,687,-4,22.6,3.6,-22.6,22.6,3.8,-22.1,5.73,2.00,-15.7,27.5
2015-04-08 00:40:00,0.0,1.92346,0.00027,404.711,0.035,0.1224,0.0020,140.000,45.002,32429.11971,1.92578,405.309,34.793,45.068,45.000,0.00,0.09,-272.71,-272.78,6,687,-4,22.6,3.5,-23.1,22.6,3.8,-22.1,5.73,1.72,-15.6,27.5
2015-04-08 00:41:00,0.0,1.92331,0.00040,404.683,0.028,0.1165,0.0021,140.002,45.002,32434.97433,1.92555,405.252,34.893,45.068,45.000,0.00,0.09,-272.72,-272.78,4,687,-4,22.6,3.4,-23.5,22.6,3.8,-22.1,5.73,1.81,-15.6,27.6
2015-04-08 00:42:00,0.0,1.92349,0.00039,404.666,0.019,0.1152,0.0017,140.003,45.002,32438.48670,1.92567,405.226,34.971,45.068,45.000,0.00,0.09,-272.73,-272.78,5,687,-4,22.7,3.3,-23.6,22.7,3.8,-22.0,5.73,1.98,-15.6,27.6
2015-04-08 00:43:00,0.0,1.92345,0.00032,404.649,0.033,0.1145,0.0018,140.001,45.002,32441.66456,1.92561,405.207,35.043,45.068,45.001,0.00,0.09,-272.72,-272.77,5,687,-4,22.7,3.3,-23.6,22.7,3.8,-22.1,5.73,1.70,-15.6,27.7
2015-04-08 00:44:00,0.0,1.92350,0.00028,404.700,0.028,0.1120,0.0012,139.999,45.002,32442.67714,1.92564,405.246,35.140,45.068,45.001,0.00,0.09,-272.72,-272.78,4,686,-4,22.7,3.2,-23.8,22.7,3.8,-22.1,5.73,1.84,-15.6,27.8
2015-04-08 00:45:00,0.0,1.92329,0.00037,404.684,0.037,0.1093,0.0017,140.001,45.002,32445.94956,1.92535,405.217,35.219,45.068,45.001,0.00,0.09,-272.73,-272.78,5,686,-4,22.8,3.2,-24.0,22.7,3.8,-22.0,5.73,1.96,-15.6,27.8
2015-04-08 00:46:00,0.0,1.92350,0.00034,404.687,0.031,0.1087,0.0017,140.001,45.001,32449.33572,1.92559,405.218,35.297,45.068,45.001,0.00,0.09,-272.72,-272.77,4,687,-4,22.8,3.1,-24.2,22.8,3.8,-22.0,5.73,1.70,-15.5,27.9
2015-04-08 00:47:00,0.0,1.92338,0.00040,404.728,0.054,0.1090,0.0021,139.999,45.002,32452.30360,1.92545,405.258,35.375,45.068,45.001,0.00,0.09,-272.71,-272.77,5,686,-4,22.8,3.1,-24.1,22.8,3.8,-22.0,5.73,1.84,-15.5,27.9
2015-04-08 00:48:00,0.0,1.92338,0.00035,404.770,0.030,0.1118,0.0017,140.001,45.002,32457.88915,1.92547,405.315,35.415,45.068,45.000,0.00,0.09,-272.73,-272.77,5,687,-4,22.9,3.2,-23.8,22.8,3.8,-22.1,5.73,1.96,-15.5,28.0
2015-04-08 00:49:00,0.0,1.92308,0.00040,404.727,0.052,0.1130,0.0019,140.002,45.001,32462.90273,1.92524,405.279,35.425,45.067,45.000,0.00,0.09,-272.72,-272.77,4,687,-4,22.8,3.3,-23.6,22.8,3.7,-22.1,5.73,1.65,-15.5,28.0
2015-04-08 00:50:00,0.0,1.92321,0.00034,404.692,0.035,0.1143,0.0017,139.997,45.001,32463.10152,1.92537,405.250,35.369,45.066,44.999,0.00,0.09,-272.71,-272.77,5,687,-4,22.8,3.3,-23.5,22.8,3.7,-22.2,5.73,1.98,-15.5,28.0
2015-04-08 00:51:00,0.0,1.92350,0.00023,404.693,0.026,0.1135,0.0013,139.998,45.000,32462.23982,1.92564,405.246,35.300,45.066,44.999,0.00,0.09,-272.72,-272.78,4,688,-4,22.7,3.3,-23.6,22.7,3.7,-22.3,5.73,1.73,-15.5,28.0
2015-04-08 00:52:00,0.0,1.92364,0.00029,404.706,0.031,0.1119,0.0019,139.998,44.999,32461.09548,1.92576,405.251,35.209,45.066,44.998,0.00,0.09,-272.72,-272.79,5,688,-4,22.7,3.3,-23.8,22.7,3.7,-22.4,5.73,1.88,-15.5,28.0
2015-04-08 00:53:00,0.0,1.92354,0.00038,404.687,0.023,0.1116,0.0012,139.997,44.999,32460.13591,1.92569,405.232,35.094,45.065,44.998,0.00,0.09,-272.72,-272.77,4,688,-4,22.7,3.2,-23.9,22.7,3.7,-22.4,5.73,1.79,-15.5,28.0
2015-04-08 00:54:00,0.0,1.92359,0.00040,404.667,0.022,0.1101,0.0023,139.999,44.998,32460.80739,1.92566,405.204,34.948,45.065,44.998,0.00,0.09,-272.72,-272.78,4,689,-4,22.6,3.2,-24.1,22.7,3.7,-22.5,5.73,1.87,-15.5,28.0
2015-04-08 00:55:00,0.0,1.92357,0.00038,404.684,0.026,0.1083,0.0012,140.002,44.998,32461.40463,1.92563,405.212,34.791,45.066,44.999,0.00,0.09,-272.72,-272.78,5,689,-4,22.6,3.2,-24.2,22.7,3.6,-22.6,5.73,1.76,-15.5,27.8
2015-04-08 00:56:00,0.0,1.92347,0.00036,404.680,0.029,0.1086,0.0017,139.999,44.998,32457.98832,1.92550,405.210,34.618,45.066,44.999,0.00,0.09,-272.72,-272.78,4,689,-4,22.7,3.2,-24.2,22.7,3.6,-22.6,5.73,1.93,-15.5,27.6
2015-04-08 00:57:00,0.0,1.92365,0.00033,404.692,0.037,0.1080,0.0015,140.002,44.997,32452.52613,1.92571,405.219,34.462,45.066,44.999,0.00,0.09,-272.72,-272.77,5,689,-4,22.6,3.1,-24.3,22.6,3.6,-22.8,5.73,1.66,-15.5,27.5
2015-04-08 00:58:00,0.0,1.92370,0.00033,404.692,0.036,0.1063,0.0015,140.000,44.997,32450.31146,1.92572,405.209,34.306,45.066,44.999,0.00,0.09,-272.73,-272.78,4,690,-4,22.6,3.1,-24.4,22.6,3.6,-22.8,5.73,2.02,-15.5,27.4
2015-04-08 00:59:00,0.0,1.92351,0.00036,404.704,0.031,0.1066,0.0015,140.003,44.997,32447.61637,1.92553,405.222,34.105,45.067,45.000,0.00,0.09,-272.72,-272.78,4,691,-4,22.6,3.1,-24.5,22.6,3.6,-22.8,5.73,1.63,-15.5,27.3
2015-04-08 01:00:00,0.0,1.92362,0.00023,404.688,0.031,0.1047,0.0010,140.000,44.997,32445.67552,1.92562,405.199,33.926,45.067,44.999,0.00,0.09,-272.72,-272.77,5,691,-4,22.6,3.0,-24.6,22.6,3.6,-22.9,5.73,1.89,-15.5,27.1
2015-04-08 01:01:00,0.0,1.92397,0.00034,404.683,0.021,0.1049,0.0021,140.001,44.997,32440.64816,1.92591,405.195,33.722,45.067,44.999,0.00,0.09,-272.72,-272.77,4,692,-4,22.6,3.0,-24.6,22.6,3.5,-23.0,5.73,1.94,-15.5,27.0
2015-04-08 01:02:00,0.0,1.92399,0.00030,404.678,0.024,0.1043,0.0016,139.999,44.997,32435.66813,1.92597,405.185,33.504,45.067,44.999,0.00,0.09,-272.72,-272.78,4,693,-4,22.6,3.0,-24.6,22.5,3.5,-22.9,5.73,1.65,-15.5,27.1
2015-04-08 01:03:00,0.0,1.92432,0.00043,404.676,0.032,0.1047,0.0019,140.000,44.996,32428.00408,1.92629,405.187,33.257,45.067,44.999,0.00,0.09,-272.72,-272.77,5,693,-4,22.6,3.0,-24.6,22.5,3.5,-23.0,5.73,1.80,-15.5,27.0
2015-04-08 01:04:00,0.0,1.92441,0.00023,404.673,0.027,0.1049,0.0017,140.000,44.996,32419.32540,1.92640,405.184,33.035,45.067,45.000,0.00,0.09,-272.72,-272.78,5,693,-4,22.6,3.0,-24.6,22.5,3.5,-23.1,5.73,2.00,-15.5,27.0
2015-04-08 01:05:00,0.0,1.92441,0.00039,404.689,0.036,0.1048,0.0015,140.000,44.996,32413.01094,1.92640,405.200,32.862,45.067,44.999,0.00,0.09,-272.72,-272.78,5,693,-4,22.5,3.0,-24.6,22.4,3.5,-23.1,5.73,1.71,-15.5,26.9
2015-04-08 01:06:00,0.0,1.92446,0.00033,404.726,0.026,0.1050,0.0015,139.999,44.997,32405.77358,1.92644,405.237,32.699,45.067,45.000,0.00,0.09,-272.72,-272.78,4,694,-4,22.5,3.1,-24.5,22.4,3.5,-23.2,5.73,1.74,-15.6,26.7
2015-04-08 01:07:00,0.0,1.92436,0.00032,404.724,0.030,0.1051,0.0020,140.000,44.997,32399.31135,1.92637,405.236,32.577,45.067,45.000,0.00,0.09,-272.72,-272.78,5,694,-4,22.5,3.1,-24.6,22.4,3.5,-23.3,5.73,2.02,-15.6,26.6
2015-04-08 01:08:00,0.0,1.92428,0.00034,404.724,0.035,0.1065,0.0021,139.999,44.997,32392.44892,1.92631,405.245,32.507,45.068,45.000,0.00,0.09,-272.72,-272.78,5,693,-4,22.5,3.1,-24.5,22.4,3.5,-23.3,5.73,1.66,-15.6,26.7
2015-04-08 01:09:00,0.0,1.92436,0.00034,404.703,0.029,0.1063,0.0017,140.002,44.998,32387.31086,1.92634,405.219,32.469,45.068,45.000,0.00,0.09,-272.73,-272.78,4,694,-4,22.4,3.1,-24.5,22.3,3.5,-23.3,5.73,1.91,-15.6,26.7
2015-04-08 01:10:00,0.0,1.92446,0.00036,404.703,0.025,0.1065,0.0015,139.999,44.998,32382.80700,1.92652,405.223,32.437,45.068,45.000,0.00,0.09,-272.72,-272.78,6,693,-3,22.4,3.1,-24.5,22.3,3.4,-23.5,5.73,1.83,-15.6,26.6
2015-04-08 01:11:00,0.0,1.92412,0.00049,404.721,0.030,0.1069,0.0013,140.001,44.999,32381.32217,1.92615,405.242,32.437,45.068,45.000,0.00,0.09,-272.72,-272.78,5,692,-4,22.3,3.1,-24.5,22.2,3.4,-23.5,5.73,1.78,-15.7,26.5
2015-04-08 01:12:00,0.0,1.92434,0.00026,404.738,0.032,0.1072,0.0015,140.000,45.000,32380.09488,1.92636,405.260,32.439,45.068,45.000,0.00,0.09,-272.73,-272.79,3,693,-1,22.3,3.2,-24.4,22.2,3.4,-23.6,5.73,1.91,-15.7,26.5
2015-04-08 01:13:00,0.0,1.92423,0.00038,404.731,0.033,0.1071,0.0017,140.002,45.000,32379.29741,1.92629,405.253,32.474,45.068,45.000,0.00,0.09,-272.72,-272.77,6,692,-3,22.3,3.2,-24.4,22.2,3.4,-23.6,5.73,1.77,-15.7,26.5
2015-04-08 01:14:00,0.0,1.92376,0.00039,404.731,0.049,0.1078,0.0013,140.002,45.001,32378.85477,1.92581,405.259,32.545,45.068,45.000,0.00,0.09,-272.72,-272.78,4,691,-3,22.3,3.2,-24.3,22.2,3.4,-23.6,5.73,1.85,-15.7,26.6
2015-04-08 01:15:00,0.0,1.92343,0.00029,404.704,0.026,0.1084,0.0016,139.999,45.001,32381.21878,1.92550,405.231,32.669,45.069,45.001,0.00,0.09,-272.73,-272.78,6,691,-3,22.3,3.2,-24.2,22.2,3.4,-23.7,5.73,1.90,-15.7,26.6
2015-04-08 01:16:00,0.0,1.92338,0.00041,404.701,0.028,0.1094,0.0019,140.000,45.002,32383.27129,1.92545,405.234,32.822,45.069,45.001,0.00,0.09,-272.72,-272.78,5,691,-3,22.3,3.2,-24.1,22.2,3.4,-23.7,5.73,1.70,-15.7,26.6
2015-04-08 01:17:00,0.0,1.92350,0.00029,404.698,0.023,0.1109,0.0025,140.000,45.002,32384.43662,1.92559,405.239,32.979,45.069,45.001,0.00,0.09,-272.72,-272.77,6,690,-3,22.3,3.3,-23.9,22.3,3.4,-23.6,5.73,2.02,-15.7,26.7
2015-04-08 01:18:00,0.0,1.92360,0.00037,404.717,0.033,0.1110,0.0018,139.998,45.002,32388.70351,1.92570,405.258,33.136,45.069,45.001,0.00,0.09,-272.72,-272.78,5,690,-3,22.3,3.3,-24.0,22.3,3.4,-23.6,5.73,1.69,-15.8,26.7
2015-04-08 01:19:00,0.0,1.92375,0.00035,404.733,0.033,0.1101,0.0014,139.997,45.003,32390.69458,1.92583,405.270,33.318,45.069,45.001,0.00,0.09,-272.72,-272.79,5,689,-4,22.3,3.2,-24.1,22.3,3.4,-23.6,5.73,1.90,-15.8,26.8
2015-04-08 01:20:00,0.0,1.92394,0.00032,404.735,0.038,0.1093,0.0016,139.999,45.003,32393.63109,1.92605,405.268,33.465,45.069,45.001,0.00,0.09,-272.72,-272.78,6,689,-3,22.4,3.2,-24.1,22.3,3.4,-23.7,5.73,1.90,-15.8,26.8
2015-04-08 01:21:00,0.0,1.92365,0.00050,404.726,0.032,0.1088,0.0020,139.999,45.002,32401.32178,1.92571,405.256,33.606,45.068,45.000,0.00,0.09,-272.72,-272.78,4,689,-3,22.4,3.2,-24.2,22.3,3.3,-23.7,5.73,1.69,-15.8,26.9
2015-04-08 01:22:00,0.0,1.92367,0.00037,404.705,0.025,0.1098,0.0016,139.999,45.002,32404.42840,1.92572,405.240,33.733,45.068,45.000,0.00,0.09,-272.73,-272.79,6,689,-3,22.4,3.2,-24.1,22.3,3.4,-23.7,5.73,2.01,-15.8,27.0
2015-04-08 01:23:00,0.0,1.92401,0.00044,404.712,0.035,0.1095,0.0015,140.000,45.003,32406.69101,1.92605,405.246,33.849,45.068,45.000,0.00,0.09,-272.72,-272.78,4,689,-3,22.4,3.2,-24.1,22.4,3.3,-23.7,5.73,1.74,-15.8,27.0
2015-04-08 01:24:00,0.0,1.92391,0.00042,404.699,0.040,0.1093,0.0017,139.997,45.003,32410.34104,1.92602,405.230,33.983,45.068,45.000,0.00,0.09,-272.72,-272.78,6,688,-3,22.5,3.2,-24.1,22.4,3.3,-23.7,5.73,1.82,-15.8,27.1
2015-04-08 01:25:00,0.0,1.92419,0.00040,404.754,0.038,0.1071,0.0012,139.999,45.002,32413.89053,1.92618,405.278,34.117,45.068,45.000,0.00,0.09,-272.73,-272.78,4,688,-4,22.5,3.2,-24.3,22.4,3.4,-23.6,5.73,1.97,-15.8,27.1
2015-04-08 01:26:00,0.0,1.92432,0.00034,404.760,0.031,0.1068,0.0018,140.001,45.002,32415.92742,1.92635,405.281,34.247,45.068,45.000,0.00,0.09,-272.72,-272.78,5,688,-3,22.5,3.2,-24.3,22.5,3.4,-23.6,5.73,1.67,-15.8,27.2
2015-04-08 01:27:00,0.0,1.92447,0.00036,404.755,0.021,0.1077,0.0020,140.000,45.002,32417.77442,1.92652,405.278,34.383,45.068,45.000,0.00,0.09,-272.72,-272.78,5,688,-3,22.5,3.2,-24.2,22.5,3.4,-23.6,5.73,1.94,-15.8,27.3
2015-04-08 01:28:00,0.0,1.92433,0.00024,404.760,0.037,0.1070,0.0014,139.999,45.002,32420.36503,1.92636,405.281,34.503,45.068,45.000,0.00,0.09,-272.72,-272.78,4,688,-4,22.6,3.2,-24.2,22.5,3.4,-23.6,5.73,1.87,-15.7,27.3
2015-04-08 01:29:00,0.0,1.92419,0.00029,404.757,0.033,0.1067,0.0018,139.997,45.002,32423.03883,1.92622,405.278,34.618,45.068,45.000,0.00,0.09,-272.72,-272.78,7,686,-5,22.6,3.2,-24.2,22.5,3.4,-23.5,5.73,1.69,-15.7,27.4
2015-04-08 01:30:00,0.0,1.92424,0.00032,404.773,0.030,0.1071,0.0016,140.000,45.002,32427.56152,1.92626,405.295,34.734,45.068,45.000,0.00,0.09,-272.72,-272.77,4,687,-4,22.6,3.2,-24.2,22.5,3.4,-23.5,5.73,1.98,-15.7,27.4
2015-04-08 01:31:00,0.0,1.92417,0.00033,404.783,0.027,0.1075,0.0016,139.998,45.002,32431.20035,1.92625,405.307,34.848,45.068,45.000,0.00,0.09,-272.72,-272.78,5,687,-4,22.6,3.1,-24.3,22.6,3.4,-23.5,5.73,1.81,-15.7,27.5
2015-04-08 01:32:00,0.0,1.92416,0.00037,404.777,0.043,0.1075,0.0016,140.004,45.002,32435.43859,1.92620,405.300,34.959,45.068,45.000,0.00,0.09,-272.72,-272.79,6,687,-3,22.6,3.1,-24.3,22.6,3.4,-23.5,5.73,1.71,-15.7,27.6
2015-04-08 01:33:00,0.0,1.92404,0.00036,404.756,0.036,0.1077,0.0019,140.002,45.002,32437.50209,1.92604,405.283,35.055,45.068,45.000,0.00,0.09,-272.72,-272.78,5,688,-3,22.7,3.1,-24.2,22.6,3.3,-23.5,5.73,1.99,-15.7,27.6
2015-04-08 01:34:00,0.0,1.92453,0.00046,404.749,0.027,0.1076,0.0016,139.998,45.002,32438.79782,1.92655,405.272,35.140,45.068,45.001,0.00,0.09,-272.72,-272.77,5,687,-4,22.7,3.1,-24.3,22.7,3.3,-23.5,5.73,1.80,-15.7,27.7
2015-04-08 01:35:00,0.0,1.92433,0.00037,404.737,0.030,0.1064,0.0019,140.000,45.002,32444.03958,1.92638,405.256,35.223,45.068,45.001,0.00,0.09,-272.72,-272.78,4,687,-4,22.7,3.1,-24.3,22.7,3.3,-23.5,5.73,1.72,-15.6,27.7
2015-04-08 01:36:00,0.0,1.92423,0.00035,404.732,0.026,0.1061,0.0020,139.996,45.002,32449.23754,1.92623,405.250,35.294,45.068,45.001,0.00,0.09,-272.72,-272.78,5,686,-4,22.8,3.1,-24.4,22.7,3.4,-23.5,5.73,1.98,-15.6,27.8
2015-04-08 01:37:00,0.0,1.92469,0.00027,404.728,0.031,0.1061,0.0019,140.001,45.002,32452.18816,1.92669,405.245,35.375,45.068,45.001,0.00,0.09,-272.72,-272.77,5,686,-4,22.8,3.1,-24.4,22.7,3.3,-23.5,5.73,1.81,-15.6,27.8
2015-04-08 01:38:00,0.0,1.92458,0.00035,404.726,0.032,0.1066,0.0019,139.997,45.002,32451.75448,1.92659,405.245,35.470,45.068,45.001,0.00,0.09,-272.72,-272.77,4,686,-4,22.8,3.1,-24.3,22.7,3.3,-23.4,5.73,1.72,-15.6,27.9
2015-04-08 01:39:00,0.0,1.92472,0.00031,404.726,0.022,0.1061,0.0015,139.999,45.001,32456.17793,1.92674,405.243,35.550,45.068,45.001,0.00,0.09,-272.73,-272.78,5,686,-4,22.8,3.1,-24.3,22.8,3.3,-23.4,5.73,1.98,-15.6,27.9
2015-04-08 01:40:00,0.0,1.92469,0.00029,404.754,0.037,0.1060,0.0012,140.001,45.001,32459.88774,1.92672,405.272,35.620,45.068,45.000,0.00,0.09,-272.71,-272.77,4,687,-4,22.8,3.1,-24.4,22.8,3.3,-23.5,5.73,1.78,-15.6,28.0
2015-04-08 01:41:00,0.0,1.92442,0.00041,404.711,0.030,0.1049,0.0021,139.996,45.001,32463.94507,1.92642,405.224,35.619,45.067,44.999,0.00,0.09,-272.71,-272.77,5,687,-4,22.8,3.1,-24.4,22.8,3.3,-23.5,5.73,1.75,-15.6,28.0
2015-04-08 01:42:00,0.0,1.92462,0.00036,404.728,0.033,0.1046,0.0019,140.000,45.000,32465.81596,1.92657,405.236,35.564,45.066,44.999,0.00,0.09,-272.73,-272.77,4,687,-4,22.7,3.0,-24.5,22.8,3.3,-23.5,5.73,1.99,-15.5,28.0
2015-04-08 01:43:00,0.0,1.92463,0.00031,404.730,0.022,0.1044,0.0019,139.998,45.000,32466.93350,1.92664,405.239,35.482,45.066,44.998,0.00,0.09,-272.72,-272.78,5,687,-4,22.7,3.0,-24.6,22.7,3.3,-23.6,5.73,1.64,-15.6,28.0
2015-04-08 01:44:00,0.0,1.92451,0.00039,404.756,0.024,0.1046,0.0016,140.000,44.999,32467.57222,1.92647,405.265,35.358,45.065,44.998,0.00,0.09,-272.72,-272.78,4,688,-4,22.6,3.0,-24.6,22.7,3.3,-23.6,5.73,2.02,-15.5,28.0
2015-04-08 01:45:00,0.0,1.92455,0.00043,404.729,0.030,0.1042,0.0019,140.000,44.998,32466.93822,1.92653,405.237,35.220,45.065,44.998,0.00,0.09,-272.72,-272.78,5,688,-4,22.6,3.0,-24.7,22.7,3.3,-23.6,5.73,1.63,-15.5,28.0
2015-04-08 01:46:00,0.0,1.92472,0.00031,404.737,0.025,0.1036,0.0015,139.999,44.998,32462.13792,1.92668,405.241,35.072,45.066,44.999,0.00,0.09,-272.73,-272.78,3,688,-4,22.6,3.0,-24.7,22.7,3.3,-23.6,5.73,2.02,-15.5,28.0